SCP
0 0 -0 0 0 0 0 0 -0 0 0 0 0 0 0 0 0 0 0 0 0 0 0 0 0 0 0 0 0 0 0 0
0 0 0 -0 0 0 0 0 0 0 0 0 0 0 0 0 0 0 0 0 0 0 0 0 0 0 0 0 0 0 0 0
0 0 0 -0 -0 0 0 0 0 0 0 0 0 0 0 0 0 0 0 0 0 0 0 0 0 0 0 0 0 0 0 0
-0 -0 0 0 -0 -0 0 0 0 0 0 0 0 0 0 0 0 0 0 0 0 0 0 0 0 0 0 0 0 0 0 0
-0 -0 -0 -0 -0 -0 -0 -0 -0 -0 0 0 0 0 0 0 0 0 0 0 0 0 0 0 0 0 0 0 0 0 0 0
-0 -0 -0 -0 -0 -0 -0 -0 -0 -0 -0 -0 -0 0 0 0 0 0 -0 -0 0 0 0 0 0 0 0 0 0 0 0 0
-0 -0 -0 -0 -0 -0 -0 -0 -0 -0 0 0 0 0 0 0 -0 -0 -0 -0 -0 0 -0 0 0 0 0 0 0 0 0 0
-0 -0 -0 -0 -0 -0 -0 -0 -0 -0 -0 -0 -0 0 0 0 -0 -0 -0 -0 -0 -0 -0 -0 0 0 0 0 0 0 0 0
-0 -0 -0 -0 -0 -0 -0 -0 -0 -0 0 0 0 0 -0 -0 -0 -0 -0 -0 -0 -0 -0 -0 -0 0 0 0 0 0 0 0
-0 -0 -0 -0 -0 -0 -0 -0 -0 -0 -0 0 0 -0 -0 -0 -0 -0 -0 -0 -0 -0 -0 0 0 0 0 0 0 0 0 0
0 0 -0 -0 -0 -0 -0 -0 -0 -0 -0 0 0 -0 -0 -0 -0 -0 -0 -0 -0 -0 -0 0 0 0 0 0 0 0 0 0
0 0 0 0 0 0 0 0 0 0 0 0 0 0 0 0 -0 -0 -0 -0 -0 -0 -0 0 0 0 0 0 0 0 0 0
0 0 0 0 0 0 0 0 0 0 0 0 0 0 0 0 0 0 0 0 0 0 0 0 0 0 0 0 0 0 0 0
0 0 0 0 0 0 0 0 0 0 0 0 0 0 0 0 0 0 0 0 0 0 0 0 0 0 0 0 0 0 0 0
0 0 0 0 -0 -0 0 0 0 0 0 0 0 0 0 0 0 0 0 0 0 0 0 0 0 0 0 0 0 0 0 0
0 0 0 0 0 0 0 0 0 0 0 0 0 0 0 0 0 0 0 0 0 0 0 0 0 0 0 0 0 0 0 0
0 0 0 0 0 0 0 0 0 0 0 0 0 0 0 0 0 0 0 0 0 0 0 0 0 0 0 0 0 0 0 0
0 0 0 0 0 0 0 0 0 0 0 0 0 0 0 0 0 0 0 0 0 0 0 0 0 0 0 0 0 0 0 0
0 0 0 0 0 0 0 0 0 0 0 0 0 0 0 0 0 0 0 0 0 0 0 0 0 0 0 0 0 0 0 0
Wind_Speed_500mb
17 18 18 19 19 27 32 36 44 56 64 74 73 70 67 74 83 88 85 78 75 66 60 56 55 53 49 42 31 27 27 25
17 19 20 17 19 32 31 48 59 64 71 72 69 67 74 77 78 73 85 61 60 58 56 54 50 53 49 43 35 36 38 36
23 24 22 21 27 26 23 46 70 63 70 74 76 71 73 69 70 78 79 74 59 58 54 52 55 53 50 46 43 45 43 41
29 30 31 30 28 26 34 35 63 60 72 82 86 76 66 70 68 63 68 70 64 66 64 55 53 50 50 50 52 51 49 48
29 37 38 37 37 35 40 47 70 77 76 74 84 86 81 79 78 70 71 66 69 69 60 52 52 51 52 58 59 57 53 56
38 35 40 37 39 42 44 51 60 62 59 70 84 81 81 81 76 80 80 67 69 67 63 61 54 53 56 62 64 67 65 63
44 35 37 44 46 43 46 48 56 62 63 68 82 86 82 79 78 86 90 86 81 69 66 69 63 62 58 58 60 64 67 69
56 53 53 51 48 47 46 50 56 62 68 69 74 74 73 76 74 87 86 86 82 81 79 77 73 66 63 62 66 70 73 75
64 59 56 57 59 56 52 53 57 59 65 66 65 66 65 69 73 75 80 89 90 83 81 80 78 74 73 73 73 77 75 78
67 66 62 60 61 65 65 64 60 59 64 63 64 65 68 69 74 76 82 84 87 85 84 87 82 84 84 83 84 82 78 80
55 69 69 68 65 65 69 70 66 65 66 66 68 71 74 77 77 80 80 84 84 85 87 87 89 90 86 84 86 82 80 79
42 55 67 71 70 69 69 73 73 74 71 68 69 72 72 73 77 77 79 78 81 86 89 89 89 89 85 84 81 82 77 79
39 46 54 63 70 73 76 76 76 76 72 70 71 76 76 79 82 80 80 82 84 89 89 90 96 89 93 81 77 60 68 87
35 38 43 49 57 65 75 79 81 82 77 74 82 81 90 84 85 85 86 88 87 88 90 91 90 85 97 87 70 88 100 100
31 38 41 46 50 52 55 59 69 79 87 89 85 86 88 88 90 92 94 96 93 92 89 61 81 81 77 81 78 87 93 98
34 46 46 49 52 52 54 54 56 61 70 82 90 101 100 97 95 94 93 90 86 84 84 85 83 75 67 64 72 78 76 77
38 49 51 53 55 54 56 58 59 61 63 65 68 78 85 88 90 87 83 82 82 77 74 73 79 78 72 73 65 72 76 76
53 53 52 51 56 61 65 60 58 59 60 61 60 58 59 62 63 66 66 63 60 56 53 64 65 69 70 65 70 78 82 72
54 46 43 48 49 46 45 46 48 48 49 52 48 48 49 49 47 46 42 39 41 50 50 52 60 63 64 61 54 51 46 44
Wind_Direction_500mb
206 204 218 223 218 216 208 201 190 184 175 171 166 172 182 185 187 184 179 186 196 194 198 192 199 197 201 200 208 209 210 213
192 211 195 201 223 218 223 201 187 181 177 170 169 179 184 186 187 183 178 187 191 196 199 201 205 205 208 211 208 212 208 210
196 209 198 200 207 207 211 205 183 183 175 174 174 173 177 175 176 184 192 190 202 198 206 207 212 211 215 217 221 218 215 218
191 198 199 202 201 200 196 189 182 187 183 181 180 180 183 180 182 189 191 196 201 203 215 216 217 221 224 226 230 230 225 225
205 195 199 200 205 203 194 196 191 189 190 192 185 188 193 199 197 199 198 202 209 211 218 223 224 229 235 237 240 238 234 236
209 207 201 198 197 202 205 201 203 204 205 207 191 196 201 207 203 208 204 213 215 222 226 226 231 235 242 244 241 239 240 240
210 211 208 201 203 203 203 199 199 203 208 205 203 204 209 215 220 212 212 219 221 227 232 232 236 242 244 250 252 247 247 245
209 208 206 205 206 208 206 202 202 206 209 207 207 210 217 221 221 216 218 219 226 228 232 232 238 248 251 253 252 253 252 247
211 214 212 207 209 207 206 206 206 205 209 208 210 215 218 218 218 220 222 224 228 233 233 238 245 255 259 258 258 257 257 256
211 215 218 219 212 210 207 208 209 210 213 213 215 218 218 217 220 226 228 232 234 235 240 247 251 257 260 262 260 260 261 262
218 219 221 220 223 220 216 214 213 213 215 216 218 221 222 223 227 230 232 234 235 238 243 248 256 259 261 262 262 262 263 265
224 227 230 228 226 226 224 223 221 221 220 222 225 227 228 229 232 235 237 240 242 246 250 254 256 259 262 264 266 262 268 266
233 236 235 235 235 233 231 230 229 231 232 232 237 234 235 236 240 244 247 251 253 256 259 262 264 271 270 269 271 250 242 254
238 243 244 243 241 240 242 239 240 238 237 241 243 246 241 245 247 249 251 255 258 264 267 271 279 279 268 260 259 263 255 248
240 240 241 243 244 246 247 249 248 245 244 239 240 247 252 252 254 257 259 261 263 266 270 266 273 272 273 259 258 260 259 253
235 235 240 242 242 244 248 248 249 248 245 245 245 244 249 254 256 259 261 263 266 268 272 274 265 263 261 265 258 266 260 256
242 236 237 245 246 241 244 246 247 249 249 249 250 250 251 254 258 262 265 267 268 270 272 270 271 261 269 269 261 260 251 247
231 232 238 239 245 245 246 251 254 253 254 254 254 256 256 257 260 261 263 266 270 272 271 269 268 270 275 264 261 258 252 246
239 224 224 235 242 247 247 247 248 247 247 248 250 251 252 254 257 259 261 261 262 262 262 268 269 270 268 263 254 251 244 226
Wind_Speed_850mb
17 18 18 19 19 27 32 36 44 56 64 74 73 70 67 74 83 88 85 78 75 66 60 56 55 53 49 42 31 27 27 25
17 19 20 17 19 32 31 48 59 64 71 72 69 67 74 77 78 73 85 61 60 58 56 54 50 53 49 43 35 36 38 36
23 24 22 21 27 26 23 46 70 63 70 74 76 71 73 69 70 78 79 74 59 58 54 52 55 53 50 46 43 45 43 41
29 30 31 30 28 26 34 35 63 60 72 82 86 76 66 70 68 63 68 70 64 66 64 55 53 50 50 50 52 51 49 48
29 37 38 37 37 35 40 47 70 77 76 74 84 86 81 79 78 70 71 66 69 69 60 52 52 51 52 58 59 57 53 56
38 35 40 37 39 42 44 51 60 62 59 70 84 81 81 81 76 80 80 67 69 67 63 61 54 53 56 62 64 67 65 63
44 35 37 44 46 43 46 48 56 62 63 68 82 86 82 79 78 86 90 86 81 69 66 69 63 62 58 58 60 64 67 69
56 53 53 51 48 47 46 50 56 62 68 69 74 74 73 76 74 87 86 86 82 81 79 77 73 66 63 62 66 70 73 75
64 59 56 57 59 56 52 53 57 59 65 66 65 66 65 69 73 75 80 89 90 83 81 80 78 74 73 73 73 77 75 78
67 66 62 60 61 65 65 64 60 59 64 63 64 65 68 69 74 76 82 84 87 85 84 87 82 84 84 83 84 82 78 80
55 69 69 68 65 65 69 70 66 65 66 66 68 71 74 77 77 80 80 84 84 85 87 87 89 90 86 84 86 82 80 79
42 55 67 71 70 69 69 73 73 74 71 68 69 72 72 73 77 77 79 78 81 86 89 89 89 89 85 84 81 82 77 79
39 46 54 63 70 73 76 76 76 76 72 70 71 76 76 79 82 80 80 82 84 89 89 90 96 89 93 81 77 60 68 87
35 38 43 49 57 65 75 79 81 82 77 74 82 81 90 84 85 85 86 88 87 88 90 91 90 85 97 87 70 88 100 100
31 38 41 46 50 52 55 59 69 79 87 89 85 86 88 88 90 92 94 96 93 92 89 61 81 81 77 81 78 87 93 98
34 46 46 49 52 52 54 54 56 61 70 82 90 101 100 97 95 94 93 90 86 84 84 85 83 75 67 64 72 78 76 77
38 49 51 53 55 54 56 58 59 61 63 65 68 78 85 88 90 87 83 82 82 77 74 73 79 78 72 73 65 72 76 76
53 53 52 51 56 61 65 60 58 59 60 61 60 58 59 62 63 66 66 63 60 56 53 64 65 69 70 65 70 78 82 72
54 46 43 48 49 46 45 46 48 48 49 52 48 48 49 49 47 46 42 39 41 50 50 52 60 63 64 61 54 51 46 44
Wind_Direction_850mb
206 204 218 223 218 216 208 201 190 184 175 171 166 172 182 185 187 184 179 186 196 194 198 192 199 197 201 200 208 209 210 213
192 211 195 201 223 218 223 201 187 181 177 170 169 179 184 186 187 183 178 187 191 196 199 201 205 205 208 211 208 212 208 210
196 209 198 200 207 207 211 205 183 183 175 174 174 173 177 175 176 184 192 190 202 198 206 207 212 211 215 217 221 218 215 218
191 198 199 202 201 200 196 189 182 187 183 181 180 180 183 180 182 189 191 196 201 203 215 216 217 221 224 226 230 230 225 225
205 195 199 200 205 203 194 196 191 189 190 192 185 188 193 199 197 199 198 202 209 211 218 223 224 229 235 237 240 238 234 236
209 207 201 198 197 202 205 201 203 204 205 207 191 196 201 207 203 208 204 213 215 222 226 226 231 235 242 244 241 239 240 240
210 211 208 201 203 203 203 199 199 203 208 205 203 204 209 215 220 212 212 219 221 227 232 232 236 242 244 250 252 247 247 245
209 208 206 205 206 208 206 202 202 206 209 207 207 210 217 221 221 216 218 219 226 228 232 232 238 248 251 253 252 253 252 247
211 214 212 207 209 207 206 206 206 205 209 208 210 215 218 218 218 220 222 224 228 233 233 238 245 255 259 258 258 257 257 256
211 215 218 219 212 210 207 208 209 210 213 213 215 218 218 217 220 226 228 232 234 235 240 247 251 257 260 262 260 260 261 262
218 219 221 220 223 220 216 214 213 213 215 216 218 221 222 223 227 230 232 234 235 238 243 248 256 259 261 262 262 262 263 265
224 227 230 228 226 226 224 223 221 221 220 222 225 227 228 229 232 235 237 240 242 246 250 254 256 259 262 264 266 262 268 266
233 236 235 235 235 233 231 230 229 231 232 232 237 234 235 236 240 244 247 251 253 256 259 262 264 271 270 269 271 250 242 254
238 243 244 243 241 240 242 239 240 238 237 241 243 246 241 245 247 249 251 255 258 264 267 271 279 279 268 260 259 263 255 248
240 240 241 243 244 246 247 249 248 245 244 239 240 247 252 252 254 257 259 261 263 266 270 266 273 272 273 259 258 260 259 253
235 235 240 242 242 244 248 248 249 248 245 245 245 244 249 254 256 259 261 263 266 268 272 274 265 263 261 265 258 266 260 256
242 236 237 245 246 241 244 246 247 249 249 249 250 250 251 254 258 262 265 267 268 270 272 270 271 261 269 269 261 260 251 247
231 232 238 239 245 245 246 251 254 253 254 254 254 256 256 257 260 261 263 266 270 272 271 269 268 270 275 264 261 258 252 246
239 224 224 235 242 247 247 247 248 247 247 248 250 251 252 254 257 259 261 261 262 262 262 268 269 270 268 263 254 251 244 226